Location: Mount Cross
(36.6390°N, 79.4878°W)
Time: 01:32:30
(UTC+00:00)

Vanguard 2 Rocket - Pass Details

Date: 22 March 2023
Orbit: 554 x 3314 km, 32.9° (Epoch: 08 June)

Event Time Altitude Azimuth Distance (km) Brightness Sun altitude
Exits shadow 07:09:01 31° 149° (SSE) 4,733 10.2 -45.7°
Drops below altitude 10° 07:17:28 10° 137° (SE) 6,192 11.0 -44.6°
Sets 07:22:15 0° 132° (SE) 7,074 11.5 -43.9°
